{"data":{"norad_id":66930,"epoch":"2026-05-25T00:20:03.951168Z","epoch_age_seconds":73541,"freshness":"FRESH","line1":"1 66930U 25286F   26145.01393462  .00022554  00000+0  67603-3 0  9995","line2":"2 66930  53.1605   3.8374 0001096  83.3922 276.7205 15.34428422 27096","mean_motion":15.34428422,"eccentricity":0.0001096,"inclination_deg":53.1605,"raan_deg":3.8374,"arg_perigee_deg":83.3922,"mean_anomaly_deg":276.7205,"bstar":0.00067603,"rev_number":2709,"period_min":93.846019752624,"perigee_km":461.86901850551,"apogee_km":463.36851216927,"semimajor_km":6840.7557653374,"source":"CELESTRAK","updated_at":"2026-05-25T13:38:21.385705Z"}}